[[{"header":{"parameterUnit":"m.s-1","parameterCategory":1,"la1":30.2991,"la2":30.254,"lo1":-89.0895,"lo2":-89.0444,"dy":0.0017,"dx":0.0017,"nx":28,"ny":28,"refTime":"2025-01-08T09:00:00:Z","depth":0,"parameterNumber":2,"parameterNumberName":"U-component_of_WINDS"},"data":[0,0,0,0,0,0,0,0,0,0,0,0,0,0,0,0,0,0,0,0,0,0,0,0,0,0,0,0,0,0,0,0,0,0,0,0,0,0,0,0,0,0,0,0,0,0,0,0,0,0,0,0,0,0,0,0,0,0,-5.6098,-5.6098,0,-5.6088,-5.6087,-5.6087,-5.5893,-5.5888,-5.5883,-5.5878,-5.587,-5.5874,-5.5878,0,0,0,0,0,0,0,0,0,0,0,0,0,-5.595,-5.5953,-5.6098,-5.6098,-5.6097,-5.6088,-5.6087,-5.6087,-5.5894,-5.5888,-5.5881,-5.5876,-5.5868,-5.5873,-5.5879,0,0,0,0,0,0,0,0,0,0,0,0,0,-5.5984,-5.5955,-5.6098,-5.5999,-5.5991,-5.6088,-5.6087,-5.6087,-5.5895,-5.5887,-5.588,-5.5873,-5.5867,-5.5873,-5.588,-5.607,0,0,-5.59,-5.5903,0,0,0,0,0,0,0,0,-5.5983,-5.599,-5.6014,-5.6006,-5.5997,-5.5984,-5.6032,-5.6082,-5.5897,-5.5931,-5.5878,-5.5869,-5.5914,-5.5916,-5.5931,-5.607,-5.607,-5.59,-5.5904,-5.5907,-5.5909,0,0,0,0,0,0,0,-5.5981,-5.5989,-5.6094,-5.6015,-5.6004,-5.5956,-5.5953,-5.6041,-5.5965,-5.5928,-5.5914,-5.5915,-5.5908,-5.5925,-5.5929,-5.6069,-5.59,-5.5906,-5.591,-5.5913,-5.6363,-5.637,0,0,0,0,0,0,-5.5992,-5.5989,-5.6094,-5.6093,-5.5971,-5.5965,-5.5961,-5.5995,-5.5963,-5.5951,-5.5921,-5.5906,-5.5917,-5.5922,-5.5928,-5.6147,-5.5907,-5.5913,-5.5917,-5.6355,-5.6364,-5.6373,0,0,0,0,0,0,-5.5989,-5.6003,-5.6094,-5.6037,-5.6045,-5.5975,-5.6016,-5.5999,-5.6016,-5.5958,-5.5944,-5.5953,-5.5911,-5.5919,-5.6036,-5.6144,-5.5916,-5.5923,-5.6345,-5.6358,-5.6369,-5.6589,0,0,0,0,0,0,-5.5986,-5.6003,-5.6075,-5.604,-5.6049,-5.6203,-5.6022,-5.6004,-5.6028,-5.6007,-5.5984,-5.5973,-5.5906,-5.6027,-5.6042,-5.6149,-5.5928,-5.6335,-5.6351,-5.6365,-5.6571,-5.6607,-5.6637,0,0,0,0,0,-5.5981,-5.6138,-5.6079,-5.6093,-5.6137,-5.6209,-5.6214,-5.6133,-5.6037,-5.6109,-5.6071,-5.5974,-5.6131,-5.6041,-5.6056,-5.6167,-5.6328,-5.6346,-5.6364,-5.6557,-5.66,-5.6636,0,0,0,0,0,0,-5.6188,-5.6132,-5.6066,-5.6216,-5.6219,-5.6176,-5.6263,-5.6182,-5.6212,-5.6192,-5.6091,-5.6088,-5.622,-5.6205,-5.6106,-5.6349,-5.6212,-5.6234,-5.6353,-5.6394,-5.6426,-5.6426,-5.5933,0,0,0,0,0,-5.6251,-5.6314,-5.6262,-5.6399,-5.6404,-5.6335,-5.6363,-5.63,-5.6299,-5.6299,-5.6271,-5.6274,-5.6323,-5.6358,-5.6401,-5.6569,-5.656,-5.6653,-5.6686,-5.6713,-5.6732,-5.6818,-5.6858,-5.6432,-5.6432,-5.6431,0,0,-5.6382,-5.6359,-5.6405,-5.644,-5.6435,-5.6502,-5.6336,-5.6415,-5.6464,-5.6311,-5.6419,-5.6399,-5.6396,-5.6539,-5.6601,-5.653,-5.6849,-5.6736,-5.6758,-5.6762,-5.6841,-5.6881,-5.6917,-5.6444,-5.6442,-5.644,0,0,-5.6654,-5.6644,-5.6756,-5.6754,-5.6748,-5.67,-5.6728,-5.6698,-5.6678,-5.6784,-5.6671,-5.6728,-5.6816,-5.6817,-5.683,-5.7103,-5.7014,-5.712,-5.729,-5.7375,-5.7409,-5.7438,-5.7533,-5.7569,-5.714,-5.7141,-5.7141,0,-5.6818,-5.6914,-5.6825,-5.691,-5.6928,-5.6793,-5.6906,-5.6909,-5.6917,-5.6933,-5.6855,-5.6961,-5.695,-5.709,-5.7157,-5.7172,-5.7199,-5.7121,-5.7411,-5.744,-5.7466,-5.7555,-5.7592,-5.7154,-5.7152,-5.7151,-5.715,0,-5.7114,-5.7183,-5.7274,-5.7284,-5.7313,-5.7413,-5.7338,-5.7379,-5.7314,-5.7275,-5.7385,-5.7367,-5.7402,-5.7432,-5.737,-5.7564,-5.752,-5.7429,-5.7289,-5.7521,-5.7603,-5.7637,-5.7172,-5.7167,-5.7163,-5.716,0,0,-5.7515,-5.7474,-5.7509,-5.7511,-5.7494,-5.7545,-5.7639,-5.7672,-5.7708,-5.7719,-5.7793,-5.7871,-5.7786,-5.78,-5.7738,-5.7813,-5.8028,-5.7711,-5.7709,-5.7769,-5.8238,-5.8305,-5.8346,-5.7969,-5.7976,-5.7981,-5.8237,0,-5.7775,-5.793,-5.7853,-5.8017,-5.8078,-5.7951,-5.8032,-5.8031,-5.7997,-5.8044,-5.8007,-5.8063,-5.7947,-5.7955,-5.8024,-5.7987,-5.812,-5.7968,-5.8037,-5.804,-5.8039,-5.8389,-5.8461,-5.8703,-5.8269,-5.8274,-5.8278,0,-5.81,-5.8122,-5.8293,-5.8263,-5.8286,-5.836,-5.8384,-5.8431,-5.8427,-5.8397,-5.8414,-5.8333,-5.8422,-5.8286,-5.8406,-5.8304,-5.8328,-5.8315,-5.8322,-5.8323,-5.8171,-5.8398,-5.8779,-5.8815,-5.8329,-5.8325,-5.8321,0,-5.8372,-5.8446,-5.8556,-5.8563,-5.8531,-5.8586,-5.8576,-5.8564,-5.8589,-5.8611,-5.8625,-5.8659,-5.8676,-5.8703,-5.8634,-5.8541,-5.8764,-5.8622,-5.874,-5.8742,-5.879,-5.8788,-5.9179,-5.8811,-5.8811,-5.881,-5.8809,0,-5.8669,-5.8778,-5.8677,-5.8746,-5.8863,-5.8774,-5.8893,-5.8869,-5.886,-5.8921,-5.8815,-5.8874,-5.878,-5.8831,-5.8778,-5.8884,-5.8894,-5.8872,-5.8856,-5.888,-5.8882,-5.8892,-5.8872,-5.882,-5.8818,-5.8816,-5.8814,0,-5.8992,-5.8929,-5.9041,-5.9002,-5.8995,-5.9083,-5.905,-5.9111,-5.907,-5.9149,-5.9162,-5.9099,-5.9153,-5.9087,-5.9136,-5.91,-5.9244,-5.9205,-5.9245,-5.9233,-5.9354,-5.9343,-5.9762,-5.9812,-5.9416,-5.942,-5.9423,0,-5.9184,-5.9264,-5.9234,-5.9266,-5.9262,-5.9316,-5.9341,-5.9256,-5.9286,-5.9287,-5.9349,-5.9393,-5.9424,-5.9516,-5.9475,-5.9511,-5.947,-5.9615,-5.9475,-5.9496,-5.9469,-5.9464,-5.947,-5.9643,-5.9647,-5.9651,-5.9654,0,-5.9531,-5.9496,-5.9535,-5.9564,-5.9595,-5.9614,-5.9625,-5.9658,-5.957,-5.9609,-5.9662,-5.9686,-5.9735,-5.9781,-5.9806,-5.9795,-5.9711,-5.9699,-5.9728,-5.9752,-5.9771,-5.9759,-5.932,-5.9689,-5.9686,-5.9683,-5.9681,-5.968,-5.9792,-5.9857,-5.9845,-5.9891,-5.989,-5.9903,-5.9958,-5.9924,-5.9966,-5.9998,-5.9946,-6.0013,-6.0006,-6.0031,-6.003,-6.0081,-6.0018,-6.0061,-6.0071,-6.0082,-6.0099,-5.9766,-6.0086,-6.0085,-6.0084,-6.0083,-6.0082,0,-6.0131,-6.0117,-6.0161,-6.0179,-6.0216,-6.0133,-6.014,-6.0176,-6.0236,-6.0236,-6.0268,-6.0329,-6.0373,-6.0335,-6.0371,-6.0419,-6.0381,-6.0431,-6.0425,-6.0423,-6.0155,-6.0125,-6.0461,-6.0461,-6.0461,-6.0461,-6.0461,-6.046,-6.0312,-6.0416,-6.038,-6.0482,-6.0467,-6.053,-6.0541,-6.0552,-6.0551,-6.0624,-6.0659,-6.0634,-6.0619,-6.0652,-6.0689,-6.0676,-6.0693,-6.0757,-6.0731,-6.048,-6.0443,-6.0407,-6.0378,-6.0762,-6.0763,-6.0995,-6.0997,-6.0999]},{"header":{"parameterUnit":"m.s-1","parameterCategory":1,"la1":30.2991,"la2":30.254,"lo1":-89.0895,"lo2":-89.0444,"dy":0.0017,"dx":0.0017,"nx":28,"ny":28,"refTime":"2025-01-08T09:00:00:Z","depth":0,"parameterNumber":3,"parameterNumberName":"V-component_of_WINDS"},"data":[0,0,0,0,0,0,0,0,0,0,0,0,0,0,0,0,0,0,0,0,0,0,0,0,0,0,0,0,0,0,0,0,0,0,0,0,0,0,0,0,0,0,0,0,0,0,0,0,0,0,0,0,0,0,0,0,0,0,-0.4966,-0.4966,0,-0.4983,-0.4983,-0.4983,-0.5053,-0.5055,-0.5056,-0.5058,-0.5072,-0.5071,-0.507,0,0,0,0,0,0,0,0,0,0,0,0,0,-0.499,-0.4989,-0.4966,-0.4966,-0.4966,-0.4983,-0.4983,-0.4983,-0.5053,-0.5055,-0.5057,-0.5059,-0.5073,-0.5071,-0.507,0,0,0,0,0,0,0,0,0,0,0,0,0,-0.499,-0.4989,-0.4966,-0.5003,-0.5007,-0.4983,-0.4983,-0.4983,-0.5052,-0.5055,-0.5057,-0.506,-0.5073,-0.5071,-0.507,-0.501,0,0,-0.5064,-0.5064,0,0,0,0,0,0,0,0,-0.499,-0.4989,-0.4998,-0.5001,-0.5005,-0.5018,-0.4997,-0.4992,-0.5052,-0.5035,-0.5058,-0.5061,-0.5052,-0.5052,-0.505,-0.5011,-0.5011,-0.5064,-0.5063,-0.5063,-0.5062,0,0,0,0,0,0,0,-0.499,-0.4989,-0.4973,-0.4998,-0.5002,-0.5018,-0.502,-0.4996,-0.5029,-0.5037,-0.5042,-0.5043,-0.5054,-0.5051,-0.5051,-0.5012,-0.5064,-0.5063,-0.5062,-0.5061,-0.4921,-0.4918,0,0,0,0,0,0,-0.4985,-0.4988,-0.4972,-0.4973,-0.5003,-0.5015,-0.5018,-0.5011,-0.503,-0.5035,-0.5041,-0.5046,-0.5053,-0.5053,-0.5052,-0.4981,-0.5063,-0.5061,-0.506,-0.4923,-0.492,-0.4917,0,0,0,0,0,0,-0.4985,-0.4983,-0.4971,-0.4982,-0.4982,-0.5012,-0.5004,-0.501,-0.5008,-0.5033,-0.5039,-0.5032,-0.5055,-0.5054,-0.5019,-0.4982,-0.506,-0.5059,-0.4926,-0.4922,-0.4919,-0.4839,0,0,0,0,0,0,-0.4986,-0.4983,-0.4962,-0.4981,-0.4981,-0.494,-0.5002,-0.5009,-0.5005,-0.5012,-0.5026,-0.5031,-0.5057,-0.5021,-0.5018,-0.4981,-0.5057,-0.493,-0.4925,-0.492,-0.4845,-0.4833,-0.4823,0,0,0,0,0,-0.4986,-0.4939,-0.496,-0.4958,-0.4956,-0.4938,-0.4938,-0.4969,-0.5002,-0.498,-0.4996,-0.5031,-0.4987,-0.5017,-0.5014,-0.4976,-0.4932,-0.4926,-0.492,-0.4851,-0.4836,-0.4823,0,0,0,0,0,0,-0.4914,-0.4942,-0.4966,-0.4924,-0.4928,-0.495,-0.4923,-0.4953,-0.4947,-0.4954,-0.4992,-0.4995,-0.4954,-0.4962,-0.4995,-0.4918,-0.4965,-0.4958,-0.4914,-0.49,-0.4888,-0.4886,-0.5056,0,0,0,0,0,-0.4893,-0.4878,-0.4903,-0.4863,-0.4864,-0.4893,-0.4886,-0.491,-0.4915,-0.4917,-0.4931,-0.4934,-0.492,-0.4911,-0.49,-0.4847,-0.485,-0.4819,-0.4808,-0.4798,-0.4791,-0.476,-0.4746,-0.4897,-0.4897,-0.4897,0,0,-0.485,-0.4863,-0.4851,-0.4848,-0.4855,-0.4835,-0.4894,-0.4872,-0.4858,-0.4914,-0.4881,-0.4891,-0.4896,-0.4851,-0.4832,-0.4857,-0.475,-0.4791,-0.4783,-0.4781,-0.4753,-0.4738,-0.4725,-0.4893,-0.4894,-0.4894,0,0,-0.4761,-0.4771,-0.4737,-0.4741,-0.4749,-0.4769,-0.476,-0.4777,-0.4786,-0.4754,-0.4795,-0.4777,-0.4755,-0.4756,-0.4753,-0.4662,-0.4692,-0.4657,-0.4597,-0.4566,-0.4554,-0.4544,-0.4508,-0.4496,-0.465,-0.465,-0.465,0,-0.4706,-0.468,-0.4716,-0.4691,-0.4687,-0.4737,-0.4701,-0.4704,-0.4707,-0.4703,-0.4731,-0.4701,-0.4708,-0.4663,-0.464,-0.4637,-0.4627,-0.4655,-0.4554,-0.4543,-0.4534,-0.4501,-0.4487,-0.4646,-0.4646,-0.4647,-0.4647,0,-0.461,-0.4592,-0.4563,-0.4565,-0.4559,-0.4529,-0.4558,-0.4546,-0.457,-0.4585,-0.455,-0.4561,-0.4552,-0.4543,-0.4566,-0.4499,-0.4514,-0.4547,-0.4596,-0.4515,-0.4484,-0.4471,-0.4639,-0.4641,-0.4642,-0.4643,0,0,-0.4477,-0.4498,-0.4486,-0.4486,-0.4498,-0.4483,-0.4454,-0.4446,-0.4434,-0.4434,-0.4409,-0.4387,-0.4417,-0.4414,-0.4437,-0.4411,-0.4333,-0.4447,-0.4447,-0.4423,-0.4257,-0.423,-0.4215,-0.4355,-0.4352,-0.4351,-0.4255,0,-0.439,-0.4342,-0.4372,-0.4319,-0.43,-0.4346,-0.432,-0.4323,-0.4336,-0.4321,-0.4336,-0.4318,-0.4361,-0.4359,-0.4335,-0.4348,-0.43,-0.4356,-0.4329,-0.4327,-0.4324,-0.4199,-0.4172,-0.4082,-0.4244,-0.4242,-0.424,0,-0.4282,-0.4277,-0.4222,-0.4234,-0.4228,-0.4204,-0.4197,-0.4183,-0.4186,-0.4197,-0.4192,-0.4222,-0.4191,-0.424,-0.4197,-0.4234,-0.4225,-0.423,-0.4227,-0.4224,-0.4278,-0.4191,-0.4054,-0.4039,-0.4222,-0.4224,-0.4225,0,-0.4187,-0.4166,-0.413,-0.4129,-0.4143,-0.4125,-0.413,-0.4136,-0.4128,-0.4121,-0.4116,-0.4105,-0.4099,-0.4089,-0.4114,-0.4148,-0.4066,-0.4118,-0.4073,-0.4072,-0.4052,-0.4053,-0.391,-0.405,-0.405,-0.405,-0.4051,0,-0.4085,-0.4049,-0.4087,-0.4064,-0.4024,-0.4058,-0.4016,-0.4026,-0.403,-0.4009,-0.4048,-0.4026,-0.4061,-0.4042,-0.4062,-0.4021,-0.4019,-0.4025,-0.403,-0.402,-0.4019,-0.4014,-0.4019,-0.4047,-0.4048,-0.4048,-0.4049,0,-0.3971,-0.3996,-0.3959,-0.3975,-0.3978,-0.3947,-0.396,-0.3938,-0.3954,-0.3925,-0.3921,-0.3944,-0.3924,-0.3948,-0.393,-0.3942,-0.3887,-0.3902,-0.3885,-0.3889,-0.3841,-0.3844,-0.3688,-0.3668,-0.3822,-0.3821,-0.382,0,-0.3904,-0.3877,-0.389,-0.3878,-0.3881,-0.3862,-0.3854,-0.3885,-0.3874,-0.3874,-0.3852,-0.3835,-0.3823,-0.3788,-0.3802,-0.3787,-0.3801,-0.3747,-0.3799,-0.3789,-0.3797,-0.3797,-0.3793,-0.3736,-0.3734,-0.3733,-0.3732,0,-0.3781,-0.3794,-0.3781,-0.3771,-0.376,-0.3753,-0.375,-0.3738,-0.377,-0.3756,-0.3736,-0.3726,-0.3707,-0.3688,-0.3677,-0.368,-0.371,-0.3715,-0.3703,-0.3692,-0.3682,-0.3684,-0.3854,-0.3718,-0.372,-0.3721,-0.3722,-0.3722,-0.3687,-0.3664,-0.3668,-0.3652,-0.3652,-0.3647,-0.3627,-0.3639,-0.3623,-0.361,-0.3629,-0.3603,-0.3604,-0.3592,-0.3591,-0.357,-0.3593,-0.3576,-0.3572,-0.3566,-0.3558,-0.3687,-0.3568,-0.3569,-0.3569,-0.3569,-0.357,0,-0.3564,-0.3569,-0.3553,-0.3546,-0.3532,-0.3562,-0.3559,-0.3545,-0.3521,-0.352,-0.3507,-0.3482,-0.3463,-0.3476,-0.3459,-0.3439,-0.3452,-0.3434,-0.3434,-0.3434,-0.354,-0.3551,-0.3423,-0.3423,-0.3423,-0.3423,-0.3423,-0.3423,-0.3498,-0.3459,-0.3472,-0.3433,-0.3438,-0.3413,-0.3408,-0.3402,-0.3401,-0.3372,-0.3357,-0.3365,-0.3368,-0.3352,-0.3335,-0.3339,-0.333,-0.3306,-0.3314,-0.3413,-0.3427,-0.3441,-0.3451,-0.3304,-0.3304,-0.321,-0.3209,-0.3208]}]]